Regional Weather Roundup
Issued by NWS Raleigh/Durham, NC

Current Version | Previous Version | Graphics & Text | Print | Product List | Glossary On
Versions: 1 2 3 4 5 6 7 8 9 10 11 12 13 14 15 16 17 18 19 20 21 22 23 24 25 26 27
000
ASUS42 KRAH 200710
RWRRAH
NORTH CAROLINA WEATHER ROUNDUP
NATIONAL WEATHER SERVICE RALEIGH NC
200 AM EST MON FEB 20 2017

NOTE: "FAIR" INDICATES FEW OR NO CLOUDS BELOW 12,000 FEET WITH NO
SIGNIFICANT WEATHER AND/OR OBSTRUCTIONS TO VISIBILITY.

NCZ001-053-055-056-065-067-200800-
WESTERN NORTH CAROLINA

CITY           SKY/WX    TMP DP  RH WIND       PRES   REMARKS
ASHEVILLE      CLEAR     40  36  86 CALM      30.20R
JEFFERSON      CLEAR     47  39  73 W8        30.17R
MORGANTON      CLEAR     37  36  99 CALM      30.20R
HICKORY        CLEAR     47  41  80 NW7       30.14R
RUTHERFORDTON  CLEAR     47  41  77 NW3       30.17R
MOUNT AIRY     CLEAR     52  44  74 N8        30.15R
BOONE          CLEAR     47  39  75 W10G16    30.20R
$$

NCZ021-022-025-041-071-084-088-200800-
CENTRAL NORTH CAROLINA

CITY           SKY/WX    TMP DP  RH WIND       PRES   REMARKS
CHARLOTTE      CLEAR     45  39  79 NW6       30.14R
GREENSBORO     CLEAR     48  41  76 CALM      30.10R
WINSTON-SALEM  CLEAR     52  40  63 W3        30.12R
RALEIGH-DURHAM CLEAR     51  40  65 CALM      30.09F
FORT BRAGG     CLEAR     50  43  76 NW7       30.08S
FAYETTEVILLE   CLEAR     56  44  64 NW5       30.09R
BURLINGTON     PTCLDY    52  42  69 N3        30.09S
LAURINBURG     CLEAR     46  41  82 N5        30.11R
$$

NCZ011-015-027-028-043-044-047-080-103-200800-
NORTHEASTERN NORTH CAROLINA

CITY           SKY/WX    TMP DP  RH WIND       PRES   REMARKS
ROCKY MT-WILSO PTCLDY    51  43  74 N3        30.08R
GREENVILLE     PTCLDY    52  45  76 CALM      30.08S
WASHINGTON     CLEAR     52  44  74 NW3       30.06S
ELIZABETH CITY CLEAR     48  45  89 CALM      30.06R
MANTEO         CLEAR     45  44  95 CALM      30.06R
CAPE HATTERAS  CLEAR     48  44  86 NW5       30.05R
$$

NCZ078-087-090-091-093-098-101-200800-
SOUTHEASTERN NORTH CAROLINA

CITY           SKY/WX    TMP DP  RH WIND       PRES   REMARKS
LUMBERTON      CLEAR     53  45  74 N5        30.09R
GOLDSBORO      CLEAR     56  45  67 N6        30.06S
KINSTON        CLEAR     52  44  74 NW6       30.08R
KENANSVILLE    NOT AVBL
NEW BERN       CLEAR     47  44  90 S3        30.07S
CHERRY POINT   CLEAR     48  43  82 CALM      30.07R
BEAUFORT       CLEAR     51  48  89 NW6       30.05S
JACKSONVILLE   CLEAR     47  45  93 W3        30.07R
WILMINGTON     CLEAR     46  45  96 CALM      30.07S
$$





USA.gov is the U.S. government's official web portal to all federal, state and local government web resources and services.